Regional Weather Roundup
Issued by NWS Lake Charles, LA

Home | Current Version | Previous Version | Text Only | Print | Product List | Glossary On
Versions: 1 2 3 4 5 6 7 8 9 10 11 12 13 14 15 16 17 18 19 20 21 22 23 24 25 26 27 28 29 30 31 32 33 34 35 36 37 38 39 40 41 42 43 44 45 46 47 48 49 50
000
ASUS44 KLCH 170110
RWRLCH
RWRLCH
REGIONAL WEATHER ROUNDUP
NATIONAL WEATHER SERVICE LAKE CHARLES LA
800 PM CDT TUE SEP 16 2014

Note: "fair" indicates few or no clouds below 12,000 feet with no
significant weather and/or obstructions to visibility.


ACROSS SOUTHEAST TEXAS

CITY           SKY/WX    TMP DP  RH WIND       PRES   REMARKS
BEAUMONT       LGT RAIN  79  76  90 CALM      29.97F
BEAUMONT CITY    N/A     75  73  91 CALM      29.98F
ORANGE         LGT RAIN  78  78 100 MISG      30.00S
JASPER         CLOUDY    74  72  92 CALM      30.02S
$$

ACROSS CENTRAL LOUISIANA

CITY           SKY/WX    TMP DP  RH WIND       PRES   REMARKS
LEESVILLE      MOCLDY    73  72  96 S6        30.01S
FULLERTON      MOCLDY    76  71  85 VRB3      30.00R THUNDER
ALEXANDRIA INT CLOUDY    77  72  84 S7        30.00R
ESLER FIELD    CLOUDY    79  71  76 S9        30.02R
DERIDDER       RAIN      75  73  95 S7        30.03F
OAKDALE        LGT RAIN  74  73  95 CALM      30.02S
OPELOUSAS      LGT RAIN  73  72  98 SE3       30.03R
$$

ACROSS SOUTHWEST AND SOUTH CENTRAL LOUISIANA

CITY           SKY/WX    TMP DP  RH WIND       PRES   REMARKS
SULPHUR        LGT RAIN  76  75  96 CALM      30.00F
LAKE CHARLES   LGT RAIN  76  74  93 E6        30.00S
CHENNAULT INT  LGT RAIN  75  72  88 E3        30.01S
CAMERON PHI    PTCLDY    77  75  94 CALM      30.03R
DEQUINCY         N/A     75  75  98 CALM      29.99F
JENNINGS       MOCLDY    76  74  94 E5        30.02S
LAFAYETTE      LGT RAIN  74  73  97 CALM      30.04R
NEW IBERIA     CLOUDY    74  72  93 CALM      30.03S
ABBEVILLE      DRIZZLE   72  71  97 CALM      30.03S
PATTERSON      CLOUDY    72  72 100 NW6       30.03R
SALT POINT       N/A     75  72  90 CALM      30.00F
$$

SELECTED SITES ACROSS THE REGION

CITY           SKY/WX    TMP DP  RH WIND       PRES   REMARKS
HOUSTON BUSH   LGT RAIN  77  75  93 S5        29.97F
HOUSTON HOBBY  LGT RAIN  78  76  93 CALM      29.98S
GALVESTON      HVY RAIN  78  77  96 E8        30.00S FOG
COLLEGE STAT   PTCLDY    78  74  87 CALM      29.97F
CONROE         LGT RAIN  75  74  96 CALM      29.99F
HUNTSVILLE     LGT RAIN  78  73  84 CALM      30.00R
LUFKIN         LGT RAIN  77  73  87 SW3       30.00S FOG
SHREVEPORT     MOCLDY    81  70  69 E6        29.99R
MONROE         CLEAR     77  72  84 CALM      30.01R
NATCHEZ MS     MOCLDY    79  73  83 CALM      30.01R
BATON ROUGE    CLOUDY    73  71  93 W7        30.01S
N.O. INTL ARPT CLOUDY    76  74  93 NW3       29.99F
SLIDELL        CLOUDY    76  73  91 CALM      29.99S
$$

MARINE REPORTS

STATION/POSITION TIME  TEMP    WIND        PRES    VSBY  WAVE
                       AIR SEA DIR/SP/G                  HT/PER
                 (UTC) (F)     (DEG/KT/KT) (MB)    (MI)  (FT/S)
BUOY 30 S HIGH I 0100   81 85  110/  6/  8 1015.3R         2/ 6
SEA RIM ST PARK  0100   80     200/  4/  4 1016.0R
PORT ARTHUR      0100      84  150/  2/  2 1015.3R
SABINE PASS N    0100   80 82  200/  3/  3 1015.2R
TEXAS POINT      0100   80 83  160/  6/  6 1015.7R
CALCASIEU PASS   0100   80 83  140/  5/  6 1016.8R
LK CHARLES BEACH 0100   76 84              1015.7F
MARSH ISLAND     NOT AVBL
FRESH WATER LOCK 0100   78 83   20/  4/  5 1016.7R
AMERADA PASS     0100   76 85  280/  6/  7 1016.0R
$$


USA.gov is the U.S. government's official web portal to all federal, state and local government web resources and services.